Date String (YYYY-MM-DD hh:mm:ss) UTC,Instrument flags,Ambient pressure (hPa),Sample flow (lpm),Bypass flow (lpm),Sample temperature (°C),Ambient temperature (°C),ASC tube jacket temperature (°C),LED temperature (°C),Box temperature (°C),Sample RH (%),Span deviation,Mass concentration (μg/m³),Mass concentration (μg/m³),Mass concentration (μg/m³)
DateTimeUTC,F1_M11,P_M11,Q1_M11,Q2_M11,T1_M11,T2_M11,T3_M11,T4_M11,T5_M11,U1_M11,ZSPAN_M11,X2_M11,X0_M11,X1_M11
2021-09-27 10:00:00,,0826.2,5.01,0.00,30.3,29.1,00.0,39.4,32.0,10.0,0003.1,0006.00,0010.63,0005.12
2021-09-27 10:01:00,,0826.2,4.99,0.00,30.2,27.1,00.0,39.3,31.4,10.0,0003.1,0005.98,0010.66,0005.10
2021-09-27 10:02:00,,0826.2,4.99,0.00,30.0,26.2,00.0,39.3,31.2,10.1,0002.8,0005.96,0010.61,0005.10
2021-09-27 10:03:00,,0826.2,5.03,0.00,29.9,26.4,00.0,39.2,31.2,10.2,0002.6,0005.99,0010.68,0005.10
2021-09-27 10:04:00,,0826.2,4.99,0.00,29.8,26.8,00.0,39.2,31.2,10.3,0002.6,0006.05,0010.83,0005.12
2021-09-27 10:05:00,,0826.2,4.99,0.00,29.8,27.2,00.0,39.1,31.2,10.3,0002.7,0006.06,0011.22,0005.11
2021-09-27 10:06:00,,0826.1,5.01,0.00,29.8,27.5,00.0,39.1,31.3,10.3,0002.8,0006.05,0011.29,0005.09
2021-09-27 10:07:00,,0826.2,5.00,0.00,29.8,27.8,00.0,39.1,31.4,10.3,0002.0,0006.06,0011.31,0005.09
2021-09-27 10:08:00,,0826.2,4.99,0.00,29.8,28.0,00.0,39.1,31.4,10.3,0001.8,0006.09,0011.46,0005.08
2021-09-27 10:09:00,,0826.2,5.01,0.00,29.8,28.2,00.0,39.0,31.4,10.3,0001.7,0006.13,0011.53,0005.08
2021-09-27 10:10:00,,0826.2,5.00,0.00,29.8,28.3,00.0,39.0,31.5,10.3,0001.1,0006.13,0011.46,0005.08
2021-09-27 10:11:00,,0826.2,5.00,0.00,29.8,28.5,00.0,39.0,31.5,10.3,0000.7,0006.11,0011.10,0005.09
2021-09-27 10:12:00,,0826.2,5.01,0.00,29.8,28.5,00.0,39.0,31.5,10.3,0000.5,0006.09,0011.01,0005.08
2021-09-27 10:13:00,,0826.2,5.00,0.00,29.8,28.6,00.0,39.0,31.5,10.3,0000.5,0006.11,0011.10,0005.07
2021-09-27 10:14:00,,0826.2,4.99,0.00,29.8,28.6,00.0,39.0,31.6,10.2,0000.5,0006.13,0011.14,0005.06
2021-09-27 10:15:00,,0826.2,5.01,0.00,29.9,28.7,00.0,39.0,31.6,10.2,0000.3,0006.12,0011.74,0005.05
2021-09-27 10:16:00,,0826.2,4.99,0.00,29.9,28.7,00.0,39.0,31.6,10.2,0000.7,0006.09,0011.28,0005.05
2021-09-27 10:17:00,,0826.2,5.01,0.00,29.9,28.8,00.0,39.0,31.6,10.2,0000.6,0006.11,0011.48,0005.05
2021-09-27 10:18:00,,0826.2,5.00,0.00,29.9,28.8,00.0,39.0,31.6,10.2,0000.9,0006.10,0011.45,0005.06
2021-09-27 10:19:00,,0826.2,5.00,0.00,29.9,28.8,00.0,39.0,31.7,10.2,0000.6,0006.06,0011.27,0005.07
2021-09-27 10:20:00,,0826.2,4.99,0.00,29.9,28.8,00.0,39.0,31.7,10.1,0000.7,0006.07,0011.20,0005.08
2021-09-27 10:21:00,,0826.2,4.99,0.00,30.0,28.9,00.0,39.0,31.7,10.1,0000.7,0006.04,0011.49,0005.08
2021-09-27 10:22:00,,0826.2,5.01,0.00,30.0,28.9,00.0,39.0,31.7,10.1,0001.4,0006.05,0011.59,0005.08
2021-09-27 10:23:00,,0826.2,4.99,0.00,30.0,28.9,00.0,39.1,31.7,10.1,0001.3,0006.07,0011.65,0005.08
2021-09-27 10:24:00,,0826.2,5.01,0.00,30.0,28.9,00.0,39.1,31.8,10.1,0001.2,0006.06,0011.60,0005.09
2021-09-27 10:25:00,,0826.2,5.00,0.00,30.0,28.9,00.0,39.1,31.7,10.1,0001.6,0006.07,0011.90,0005.10
2021-09-27 10:26:00,,0826.2,4.99,0.00,30.0,28.9,00.0,39.1,31.7,10.1,0001.9,0006.03,0011.59,0005.09
2021-09-27 10:27:00,,0826.2,4.99,0.00,30.0,28.9,00.0,39.1,31.8,10.1,0001.9,0006.10,0011.88,0005.09
2021-09-27 10:28:00,,0826.2,5.02,0.00,30.1,28.9,00.0,39.1,31.8,10.1,0001.9,0006.07,0011.60,0005.09
2021-09-27 10:29:00,,0826.2,5.00,0.00,30.1,29.0,00.0,39.1,31.8,10.1,0001.9,0006.04,0011.75,0005.08
2021-09-27 10:30:00,,0826.2,4.99,0.00,30.1,29.0,00.0,39.1,31.8,10.0,0002.6,0006.05,0012.00,0005.07
2021-09-27 10:31:00,,0826.2,5.01,0.00,30.1,29.0,00.0,39.1,31.8,10.0,0002.8,0006.05,0012.24,0005.06
2021-09-27 10:32:00,,0826.2,4.99,0.00,30.1,29.0,00.0,39.2,31.8,10.0,0002.6,0005.99,0011.87,0005.03
2021-09-27 10:33:00,,0826.2,5.00,0.00,30.1,29.0,00.0,39.2,31.8,10.0,0002.2,0005.96,0011.81,0005.02
2021-09-27 10:34:00,,0826.2,5.00,0.00,30.1,29.0,00.0,39.2,31.8,10.0,0002.8,0005.95,0011.78,0005.03
2021-09-27 10:35:00,,0826.2,5.00,0.00,30.1,29.0,00.0,39.2,31.8,10.1,0003.3,0005.93,0011.91,0005.02
2021-09-27 10:36:00,,0826.2,4.99,0.00,30.1,29.0,00.0,39.2,31.8,10.1,0003.2,0005.90,0011.63,0005.01
2021-09-27 10:37:00,,0826.2,5.01,0.00,30.1,29.0,00.0,39.2,31.9,10.0,0003.3,0005.90,0012.06,0005.01
2021-09-27 10:38:00,,0826.2,4.99,0.00,30.1,29.1,00.0,39.2,31.9,10.1,0002.8,0005.86,0012.06,0005.02
2021-09-27 10:39:00,,0826.2,5.01,0.00,30.2,29.1,00.0,39.2,31.9,10.1,0002.6,0005.89,0012.38,0005.03
2021-09-27 10:40:00,,0826.2,5.01,0.00,30.2,29.1,00.0,39.2,31.9,10.1,0002.7,0005.90,0012.47,0005.03
2021-09-27 10:41:00,,0826.2,4.99,0.00,30.2,29.1,00.0,39.2,31.9,10.1,0002.5,0005.90,0012.33,0005.03
2021-09-27 10:42:00,,0826.2,5.00,0.00,30.2,29.1,00.0,39.3,31.9,10.1,0002.0,0005.89,0012.14,0005.05
2021-09-27 10:43:00,,0826.1,5.02,0.00,30.2,29.1,00.0,39.3,31.9,10.1,0002.2,0005.95,0013.95,0005.07
2021-09-27 10:44:00,,0826.1,5.00,0.00,30.2,29.1,00.0,39.3,31.9,10.0,0002.7,0006.03,0014.65,0005.09
2021-09-27 10:45:00,,0826.1,5.01,0.00,30.2,29.1,00.0,39.3,31.9,10.0,0002.6,0006.05,0014.77,0005.08
2021-09-27 10:46:00,,0826.1,5.01,0.00,30.2,29.1,00.0,39.3,31.9,10.1,0002.3,0006.08,0014.98,0005.09
2021-09-27 10:47:00,,0826.1,4.98,0.00,30.2,29.1,00.0,39.3,31.9,10.1,0002.6,0006.15,0015.05,0005.11
2021-09-27 10:48:00,,0826.2,5.02,0.00,30.2,29.1,00.0,39.3,31.9,10.1,0002.8,0006.18,0014.68,0005.11
2021-09-27 10:49:00,,0826.2,5.00,0.00,30.2,29.1,00.0,39.3,31.9,10.1,0003.0,0006.19,0014.40,0005.09
2021-09-27 10:50:00,,0826.2,4.99,0.00,30.2,29.1,00.0,39.3,31.9,10.1,0002.9,0006.20,0014.47,0005.08
2021-09-27 10:51:00,,0826.2,5.01,0.00,30.3,29.1,00.0,39.3,32.0,10.1,0002.5,0006.22,0014.44,0005.09
2021-09-27 10:52:00,,0826.2,4.99,0.00,30.3,29.1,00.0,39.3,32.0,10.1,0002.7,0006.27,0014.90,0005.10
2021-09-27 10:53:00,,0826.2,5.01,0.00,30.3,29.2,00.0,39.3,32.0,10.1,0002.7,0006.25,0014.94,0005.10
2021-09-27 10:54:00,,0826.2,5.00,0.00,30.3,29.2,00.0,39.4,32.0,10.1,0002.8,0006.24,0013.53,0005.09
2021-09-27 10:55:00,,0826.2,5.00,0.00,30.3,29.2,00.0,39.4,32.0,10.1,0002.3,0006.22,0013.05,0005.09
2021-09-27 10:56:00,,0826.2,5.00,0.00,30.3,29.2,00.0,39.4,32.0,10.0,0002.4,0006.19,0012.91,0005.08
2021-09-27 10:57:00,,0826.2,4.99,0.00,30.3,29.2,00.0,39.4,32.0,10.0,0002.3,0006.19,0012.64,0005.07
2021-09-27 10:58:00,,0826.2,5.02,0.00,30.3,29.2,00.0,39.4,32.0,10.1,0001.8,0006.16,0012.59,0005.07
2021-09-27 10:59:00,,0826.2,4.99,0.00,30.3,29.2,00.0,39.4,32.0,10.1,0001.1,0006.12,0013.75,0005.08
